[[{"header":{"parameterUnit":"m.s-1","parameterCategory":1,"la1":30.2991,"la2":30.254,"lo1":-89.0895,"lo2":-89.0444,"dy":0.0017,"dx":0.0017,"nx":28,"ny":28,"refTime":"2024-10-13T09:00:00:Z","depth":0,"parameterNumber":2,"parameterNumberName":"U-component_of_WINDS"},"data":[0,0,0,0,0,0,0,0,0,0,0,0,0,0,0,0,0,0,0,0,0,0,0,0,0,0,0,0,0,0,0,0,0,0,0,0,0,0,0,0,0,0,0,0,0,0,0,0,0,0,0,0,0,0,0,0,0,0,1.5728,1.5729,0,1.5795,1.5796,1.5796,1.5797,1.5796,1.5795,1.5794,1.5865,1.5867,1.587,0,0,0,0,0,0,0,0,0,0,0,0,0,1.5605,1.5607,1.5728,1.5729,1.573,1.5795,1.5796,1.5797,1.5797,1.5796,1.5795,1.5794,1.5864,1.5867,1.587,0,0,0,0,0,0,0,0,0,0,0,0,0,1.5664,1.5608,1.5728,1.5738,1.5739,1.5795,1.5796,1.5797,1.5797,1.5796,1.5794,1.5793,1.5863,1.5867,1.5871,1.5921,0,0,1.5883,1.5885,0,0,0,0,0,0,0,0,1.566,1.5668,1.5736,1.5737,1.5739,1.5786,1.5778,1.5839,1.5797,1.5775,1.5794,1.5793,1.584,1.5846,1.5861,1.5925,1.5928,1.5883,1.5886,1.5888,1.5889,0,0,0,0,0,0,0,1.5656,1.5665,1.5755,1.5737,1.5739,1.574,1.5747,1.579,1.5814,1.5777,1.5777,1.5785,1.5841,1.5857,1.5863,1.5929,1.5883,1.5887,1.5889,1.5891,1.6039,1.604,0,0,0,0,0,0,1.565,1.5662,1.5753,1.5757,1.5696,1.5743,1.5751,1.5772,1.5814,1.5819,1.5786,1.5785,1.5851,1.5858,1.5865,1.5928,1.5888,1.5891,1.5894,1.6037,1.6039,1.6041,0,0,0,0,0,0,1.5647,1.5658,1.575,1.5709,1.5721,1.5747,1.5771,1.5774,1.5791,1.582,1.5825,1.5798,1.585,1.586,1.5908,1.593,1.5893,1.5897,1.6036,1.6038,1.604,1.6053,0,0,0,0,0,0,1.5644,1.5657,1.5676,1.571,1.5723,1.579,1.5772,1.5777,1.5798,1.5796,1.5833,1.5838,1.585,1.5902,1.5912,1.5935,1.59,1.6034,1.6037,1.6039,1.6051,1.6056,1.606,0,0,0,0,0,1.5639,1.5677,1.5676,1.5687,1.5747,1.5791,1.5799,1.5812,1.5799,1.5819,1.5838,1.5837,1.5926,1.5906,1.5918,1.5943,1.6032,1.6036,1.6039,1.6049,1.6055,1.606,0,0,0,0,0,0,1.5645,1.5682,1.5681,1.5731,1.5758,1.5791,1.5816,1.5817,1.5849,1.5847,1.5862,1.587,1.5918,1.5935,1.5913,1.5995,1.5978,1.5984,1.5981,1.5987,1.5992,1.5986,1.5903,0,0,0,0,0,1.5652,1.5684,1.5715,1.5756,1.5769,1.5791,1.581,1.5818,1.5846,1.5858,1.5881,1.5909,1.5944,1.5967,1.6,1.6053,1.6062,1.6077,1.6081,1.6084,1.6089,1.6119,1.6126,1.6052,1.6052,1.6052,0,0,1.5667,1.5691,1.5711,1.5758,1.5779,1.5813,1.58,1.5836,1.5862,1.5864,1.591,1.5928,1.5961,1.6012,1.6036,1.6028,1.6112,1.6089,1.6091,1.6094,1.6124,1.6131,1.6137,1.6054,1.6054,1.6054,0,0,1.5712,1.5733,1.577,1.5792,1.5825,1.5839,1.5848,1.5881,1.5893,1.594,1.5942,1.5973,1.6033,1.6056,1.6076,1.6131,1.6132,1.6142,1.6165,1.6194,1.62,1.6205,1.6225,1.6232,1.6147,1.6147,1.6147,0,1.5726,1.5777,1.5789,1.5825,1.5846,1.5849,1.5887,1.5908,1.5951,1.5966,1.5957,1.6032,1.6054,1.6111,1.6125,1.6141,1.6152,1.6138,1.6198,1.6204,1.6209,1.6228,1.6235,1.6148,1.6148,1.6148,1.6147,0,1.5793,1.5828,1.5854,1.5895,1.5919,1.5956,1.5975,1.5998,1.6004,1.6019,1.6067,1.6095,1.6134,1.6148,1.6154,1.6207,1.6201,1.6195,1.6178,1.6217,1.6235,1.6243,1.6149,1.6149,1.6149,1.6148,0,0,1.5842,1.589,1.5899,1.5918,1.5955,1.5983,1.6021,1.6059,1.6079,1.6109,1.6141,1.6192,1.6187,1.6209,1.6218,1.6244,1.6286,1.6235,1.6236,1.6244,1.6346,1.6351,1.6359,1.6287,1.6288,1.629,1.6344,0,1.5891,1.5957,1.597,1.6028,1.6061,1.6065,1.6099,1.6126,1.6141,1.6173,1.619,1.6226,1.6216,1.623,1.6256,1.6276,1.6307,1.6272,1.6318,1.632,1.6309,1.6368,1.6373,1.6422,1.6351,1.6352,1.6353,0,1.5956,1.5987,1.6048,1.6082,1.6097,1.6126,1.6162,1.6192,1.6223,1.6233,1.6259,1.6265,1.6306,1.6287,1.6344,1.632,1.634,1.6353,1.6355,1.636,1.6338,1.6375,1.6438,1.6446,1.6364,1.6364,1.6363,0,1.5986,1.6043,1.6088,1.6104,1.6144,1.6165,1.6183,1.6213,1.6235,1.6267,1.6282,1.6319,1.6339,1.6368,1.6385,1.637,1.644,1.6423,1.645,1.645,1.6464,1.6463,1.6532,1.6478,1.6477,1.6477,1.6477,0,1.6039,1.6076,1.6102,1.6129,1.6171,1.6186,1.6228,1.6246,1.6273,1.6305,1.6311,1.634,1.636,1.6393,1.6407,1.6452,1.6461,1.6471,1.6474,1.647,1.6469,1.6483,1.648,1.6479,1.6479,1.6479,1.6478,0,1.6079,1.6097,1.6146,1.6181,1.619,1.622,1.625,1.6277,1.6294,1.6333,1.6344,1.6369,1.6408,1.6428,1.6477,1.6486,1.6537,1.6538,1.6526,1.6527,1.6553,1.655,1.6633,1.6645,1.6582,1.6583,1.6584,0,1.6111,1.614,1.6178,1.6199,1.6217,1.6252,1.6275,1.6291,1.6315,1.6353,1.6376,1.6415,1.6448,1.651,1.6534,1.6571,1.6573,1.66,1.6579,1.6574,1.6573,1.6571,1.6574,1.6603,1.6604,1.6604,1.6605,0,1.6166,1.6174,1.6206,1.6243,1.627,1.6299,1.6328,1.6346,1.6367,1.6394,1.6433,1.6458,1.6508,1.6547,1.6586,1.6606,1.6609,1.6611,1.6619,1.6615,1.6607,1.6612,1.6536,1.6609,1.6608,1.6608,1.6608,1.6608,1.6203,1.6229,1.626,1.6297,1.632,1.6347,1.6375,1.6395,1.6428,1.6469,1.6477,1.652,1.6552,1.6605,1.6626,1.666,1.6654,1.6666,1.6669,1.6671,1.6672,1.6602,1.6667,1.6667,1.6667,1.6667,1.6667,0,1.6258,1.6279,1.6312,1.6353,1.6382,1.6382,1.6414,1.6439,1.6476,1.6505,1.6537,1.6583,1.6621,1.6648,1.6687,1.6709,1.6712,1.6719,1.6717,1.6722,1.6675,1.6664,1.6716,1.6716,1.6716,1.6716,1.6716,1.6716,1.6291,1.6335,1.6347,1.6404,1.6424,1.6465,1.6484,1.651,1.6533,1.6584,1.6616,1.6633,1.6662,1.6703,1.6739,1.6746,1.676,1.6767,1.6774,1.673,1.6725,1.672,1.671,1.677,1.677,1.6817,1.6818,1.6818]},{"header":{"parameterUnit":"m.s-1","parameterCategory":1,"la1":30.2991,"la2":30.254,"lo1":-89.0895,"lo2":-89.0444,"dy":0.0017,"dx":0.0017,"nx":28,"ny":28,"refTime":"2024-10-13T09:00:00:Z","depth":0,"parameterNumber":3,"parameterNumberName":"V-component_of_WINDS"},"data":[0,0,0,0,0,0,0,0,0,0,0,0,0,0,0,0,0,0,0,0,0,0,0,0,0,0,0,0,0,0,0,0,0,0,0,0,0,0,0,0,0,0,0,0,0,0,0,0,0,0,0,0,0,0,0,0,0,0,2.9618,2.9618,0,2.9556,2.9555,2.9554,2.9538,2.9539,2.9539,2.9539,2.9468,2.9466,2.9464,0,0,0,0,0,0,0,0,0,0,0,0,0,2.9717,2.9715,2.9619,2.9618,2.9617,2.9556,2.9555,2.9554,2.9538,2.9539,2.9539,2.954,2.9469,2.9466,2.9464,0,0,0,0,0,0,0,0,0,0,0,0,0,2.9666,2.9715,2.9619,2.9602,2.96,2.9556,2.9555,2.9554,2.9538,2.9539,2.9539,2.954,2.947,2.9467,2.9463,2.943,0,0,2.9453,2.9451,0,0,0,0,0,0,0,0,2.9669,2.9662,2.9605,2.9603,2.96,2.9556,2.9564,2.9512,2.9538,2.9561,2.9539,2.954,2.9496,2.9491,2.9478,2.9427,2.9424,2.9453,2.945,2.9449,2.9448,0,0,0,0,0,0,0,2.9673,2.9665,2.9594,2.9604,2.9601,2.9595,2.9588,2.9554,2.9526,2.9559,2.9558,2.9551,2.9495,2.9481,2.9476,2.9423,2.9453,2.945,2.9447,2.9446,2.9339,2.9339,0,0,0,0,0,0,2.968,2.9668,2.9596,2.9592,2.9637,2.9593,2.9585,2.9569,2.9526,2.952,2.9551,2.9551,2.9486,2.948,2.9473,2.943,2.9449,2.9446,2.9444,2.934,2.9339,2.9338,0,0,0,0,0,0,2.9682,2.9674,2.9598,2.963,2.9619,2.959,2.9572,2.9568,2.9553,2.952,2.9514,2.9542,2.9487,2.9478,2.9441,2.9428,2.9444,2.9441,2.9341,2.934,2.9339,2.9346,0,0,0,0,0,0,2.9685,2.9675,2.9663,2.963,2.9618,2.9569,2.9572,2.9566,2.9548,2.9548,2.951,2.9504,2.9486,2.9446,2.9438,2.9423,2.9439,2.9342,2.9341,2.9339,2.9346,2.9345,2.9343,0,0,0,0,0,2.9689,2.9667,2.9663,2.9654,2.9604,2.9569,2.9562,2.9544,2.9548,2.9535,2.9513,2.9505,2.9431,2.9443,2.9433,2.9417,2.9343,2.9341,2.9339,2.9347,2.9345,2.9343,0,0,0,0,0,0,2.9697,2.9662,2.9657,2.9624,2.96,2.9566,2.955,2.9542,2.9514,2.9515,2.9491,2.9483,2.9447,2.9428,2.9442,2.9382,2.9386,2.9383,2.9396,2.9394,2.9392,2.9397,2.9436,0,0,0,0,0,2.9696,2.9673,2.9642,2.9615,2.9604,2.9579,2.9563,2.9551,2.9524,2.9513,2.9488,2.946,2.943,2.9411,2.9382,2.9344,2.9334,2.9328,2.9327,2.9325,2.9322,2.9299,2.9295,2.9333,2.9333,2.9333,0,0,2.9692,2.9669,2.9656,2.9617,2.9596,2.957,2.957,2.9543,2.9523,2.9508,2.9472,2.9453,2.942,2.9382,2.9364,2.9365,2.931,2.9323,2.9323,2.932,2.9297,2.9293,2.929,2.9331,2.9332,2.9332,0,0,2.9671,2.9653,2.9628,2.9608,2.9578,2.9562,2.9556,2.9523,2.951,2.9475,2.9463,2.9437,2.9386,2.9363,2.9344,2.9314,2.9305,2.9305,2.9297,2.9274,2.9271,2.9269,2.9256,2.9252,2.9302,2.9302,2.9302,0,2.9669,2.9632,2.9616,2.9589,2.9572,2.9559,2.9533,2.9513,2.9474,2.9461,2.9464,2.94,2.9376,2.9332,2.9325,2.9311,2.9301,2.9309,2.9274,2.9271,2.9268,2.9256,2.9251,2.9302,2.9302,2.9302,2.9302,0,2.963,2.9604,2.9588,2.9553,2.9533,2.9507,2.9484,2.9466,2.9456,2.9438,2.94,2.9372,2.9337,2.9325,2.9314,2.9279,2.9281,2.9279,2.9282,2.9265,2.9253,2.9248,2.9302,2.9302,2.9302,2.9302,0,0,2.9613,2.957,2.9564,2.9547,2.9513,2.9491,2.9463,2.9431,2.9415,2.9388,2.9362,2.9319,2.9317,2.9296,2.9282,2.9263,2.9239,2.9263,2.9262,2.9258,2.9196,2.9197,2.9192,2.9233,2.9232,2.9232,2.9198,0,2.9587,2.9539,2.9524,2.9483,2.9458,2.9445,2.942,2.9395,2.9378,2.9352,2.9332,2.9302,2.9302,2.9289,2.9269,2.9246,2.9226,2.9248,2.9207,2.9205,2.9215,2.9186,2.9187,2.9158,2.9194,2.9193,2.9192,0,2.955,2.9525,2.9482,2.9451,2.944,2.9418,2.9386,2.9362,2.9333,2.9321,2.9298,2.9285,2.9253,2.926,2.9213,2.9229,2.9211,2.9197,2.9195,2.9189,2.9197,2.9179,2.9148,2.9143,2.9185,2.9186,2.9186,0,2.954,2.9495,2.9464,2.945,2.9413,2.9398,2.9381,2.9352,2.9333,2.9304,2.9291,2.9259,2.924,2.9214,2.9192,2.9199,2.9146,2.9152,2.9134,2.9134,2.9123,2.9123,2.9087,2.9113,2.9113,2.9113,2.9113,0,2.9512,2.9486,2.9459,2.944,2.9409,2.9391,2.936,2.9342,2.9317,2.9292,2.9278,2.9254,2.9227,2.9199,2.9181,2.9145,2.9136,2.9124,2.912,2.9125,2.9127,2.9112,2.9113,2.9112,2.9112,2.9112,2.9113,0,2.9496,2.9477,2.9442,2.941,2.9401,2.938,2.9351,2.933,2.9313,2.9281,2.9272,2.9243,2.9209,2.9185,2.9141,2.9128,2.9088,2.9084,2.9099,2.9097,2.908,2.9081,2.9032,2.9024,2.9056,2.9056,2.9056,0,2.9479,2.9459,2.9425,2.9409,2.9393,2.9366,2.9347,2.9327,2.9307,2.9271,2.9254,2.922,2.9191,2.9137,2.911,2.9076,2.907,2.9055,2.9065,2.907,2.9068,2.9069,2.9066,2.9053,2.9053,2.9053,2.9053,0,2.945,2.9442,2.9417,2.9387,2.9366,2.9341,2.9316,2.9303,2.9278,2.9256,2.9222,2.92,2.9156,2.9121,2.9084,2.9063,2.9053,2.905,2.9044,2.9049,2.9058,2.9051,2.9094,2.9051,2.9051,2.9052,2.9052,2.9052,2.9432,2.9413,2.9387,2.9358,2.9338,2.9315,2.9294,2.9274,2.9247,2.921,2.9199,2.9164,2.9133,2.9082,2.9062,2.9032,2.9032,2.9024,2.9021,2.9019,2.9019,2.9064,2.9025,2.9025,2.9025,2.9025,2.9025,0,2.9402,2.9384,2.9358,2.9325,2.9302,2.9297,2.9269,2.9249,2.9219,2.9192,2.9165,2.9125,2.9091,2.9062,2.9026,2.9008,2.9002,2.8999,2.8999,2.8994,2.9021,2.9029,2.9004,2.9004,2.9004,2.9004,2.9004,2.9004,2.9383,2.9351,2.9339,2.9296,2.9278,2.9245,2.9229,2.9207,2.9185,2.9143,2.9115,2.9097,2.9069,2.903,2.8998,2.899,2.8977,2.8974,2.8965,2.899,2.8993,2.8995,2.9003,2.8972,2.8972,2.8941,2.8941,2.894]}]]